Weather History for Ponca City, OK

Change the Weather History Date:

Saturday, November 3, 2012

  Actual Average Record
Temperature  
Mean Temperature 52 °F -  
Max Temperature 68 °F 57 °F 80 °F (2005)
Min Temperature 39 °F 39 °F 21 °F (1951)
Degree Days  
Heating Degree Days 12    
Growing Degree Days 2 (Base 50)    
Moisture  
Dew Point 32 °F    
Average Humidity 49    
Maximum Humidity 70    
Minimum Humidity 26    
Precipitation  
Precipitation 0.00 in - - ()
Sea Level Pressure  
Sea Level Pressure 30.12 in    
Wind  
Wind Speed 9 mph (North)    
Max Wind Speed 17 mph    
Max Gust Speed 18 mph    
Visibility 10 miles    
Events      
Averages and records for this station are not official NWS values.
T = Trace of Precipitation, MM = Missing Value Source: NWS Daily Summary

Daily Weather History Graph

Daily Weather History Graph

Search for Another Location

Airport:

Trip Planner

Search our weather history database for the weather conditions in past years. The results will help you decide how hot, cold, wet, or windy it might be!

Date:

Astronomy

Nov. 03, 2012 Rise Set
Actual Time 7:54 AM CDT 6:28 PM CDT
Civil Twilight 7:27 AM CDT 6:55 PM CDT
Nautical Twilight 6:56 AM CDT 7:26 PM CDT
Astronomical Twilight 6:26 AM CDT 7:56 PM CDT
Moon 10:13 PM CDT (11/3) 11:57 AM CDT (11/3)
Length of Visible Light 11h 28m
Length of Day
10h 34m
Waning Gibbous, 80% of the Moon is Illuminated
Nov 3
Waning Gibbous
Nov 6
Last Quarter
Nov 13
New
Nov 20
First Quarter
Nov 28
Full

Hourly Weather History & Observations

Time (CDT) Temp. Windchill Dew Point Humidity Pressure Visibility Wind Dir Wind Speed Gust Speed Precip Events Conditions
12:53 AM 55.9 °F - 41.0 °F 57% 29.94 in 10.0 mi NNW 11.5 mph - N/A   Clear
1:53 AM 53.1 °F - 39.9 °F 61% 29.96 in 10.0 mi North 9.2 mph - N/A   Clear
2:53 AM 51.1 °F - 37.9 °F 61% 29.99 in 10.0 mi North 10.4 mph - N/A   Clear
3:53 AM 50.0 °F - 34.0 °F 54% 30.01 in 10.0 mi North 10.4 mph - N/A   Clear
4:53 AM 46.0 °F 41.4 °F 33.1 °F 61% 30.04 in 10.0 mi North 9.2 mph - N/A   Clear
5:53 AM 44.1 °F 40.1 °F 32.0 °F 63% 30.08 in 10.0 mi NNW 6.9 mph - N/A   Clear
6:53 AM 39.9 °F 37.8 °F 30.0 °F 68% 30.10 in 10.0 mi North 3.5 mph - N/A   Clear
7:53 AM 39.9 °F 37.8 °F 30.9 °F 70% 30.13 in 10.0 mi NW 3.5 mph - N/A   Clear
8:53 AM 43.0 °F 41.3 °F 32.0 °F 65% 30.16 in 10.0 mi North 3.5 mph - N/A   Clear
9:53 AM 50.0 °F - 32.0 °F 50% 30.17 in 10.0 mi North 11.5 mph - N/A   Clear
10:53 AM 55.0 °F - 30.9 °F 40% 30.18 in 10.0 mi North 17.3 mph - N/A   Clear
11:53 AM 55.9 °F - 30.9 °F 39% 30.18 in 10.0 mi North 10.4 mph - N/A   Clear
12:53 PM 60.1 °F - 32.0 °F 35% 30.17 in 10.0 mi NNE 10.4 mph 18.4 mph N/A   Clear
1:53 PM 63.0 °F - 32.0 °F 31% 30.14 in 10.0 mi NE 10.4 mph - N/A   Clear
2:53 PM 66.0 °F - 30.9 °F 27% 30.13 in 10.0 mi North 12.7 mph - N/A   Clear
3:53 PM 66.9 °F - 30.9 °F 26% 30.13 in 10.0 mi NNE 8.1 mph 16.1 mph N/A   Clear
4:53 PM 64.0 °F - 30.9 °F 29% 30.12 in 10.0 mi NNE 10.4 mph - N/A   Clear
5:53 PM 63.0 °F - 30.9 °F 30% 30.13 in 10.0 mi NNE 8.1 mph - N/A   Clear
6:53 PM 55.9 °F - 30.9 °F 39% 30.15 in 10.0 mi North 3.5 mph - N/A   Clear
7:53 PM 53.1 °F - 30.9 °F 43% 30.17 in 10.0 mi Calm Calm - N/A   Clear
8:53 PM 48.9 °F - 30.9 °F 50% 30.18 in 10.0 mi NNE 3.5 mph - N/A   Clear
9:53 PM 46.0 °F 44.8 °F 30.9 °F 56% 30.18 in 10.0 mi NE 3.5 mph - N/A   Clear
10:53 PM 44.1 °F 42.5 °F 30.9 °F 60% 30.18 in 10.0 mi NNE 3.5 mph - N/A   Clear
11:53 PM 45.0 °F - 32.0 °F 60% 30.19 in 10.0 mi Calm Calm - N/A   Clear